Cozumel, Mexico

12:07 PM EST on September 26, 2017 (GMT -0500)
Cozumel

Weather History for MMCZ - March, 2013

Change the Weather History Date:

Monday, March 18, 2013

  Actual Average Record
Temperature  
Mean Temperature 76 °F -  
Max Temperature 82 °F 84 °F 89 °F (2003)
Min Temperature 71 °F 72 °F 60 °F (2011)
Cooling Degree Days 12    
Growing Degree Days 26 (Base 50)    
Moisture  
Dew Point 71 °F    
Average Humidity 87    
Maximum Humidity 100    
Minimum Humidity 66    
Precipitation  
Precipitation 0.15 in - - ()
Sea Level Pressure  
Sea Level Pressure 29.92 in    
Wind  
Wind Speed 8 mph ()    
Max Wind Speed 18 mph    
Max Gust Speed 24 mph    
Visibility 7.3 miles    
Events      
Averages and records for this station are not official NWS values.
T = Trace of Precipitation, MM = Missing Value Source: Averaged Metar Reports

Daily Weather History Graph

Daily Weather History Graph

Search for Another Location

Airport or City:

Trip Planner

Search our weather history database for the weather conditions in past years. The results will help you decide how hot, cold, wet, or windy it might be!

Date:

Astronomy

Mar. 18, 2013 Rise Set
Actual Time 5:53 AM CST 5:58 PM CST
Civil Twilight 5:31 AM CST 6:20 PM CST
Nautical Twilight 5:05 AM CST 6:45 PM CST
Astronomical Twilight 4:39 AM CST 7:11 PM CST
Moon 10:34 AM CST (3/18) No Moon Set
Length of Visible Light 12h 49m
Length of Day
12h 04m
Waxing Crescent, 41% of the Moon is Illuminated
Mar 18
Waxing Crescent
Mar 19
First Quarter
Mar 27
Full
Apr 2
Last Quarter
Apr 10
New

Hourly Weather History & Observations

Time (CST) Temp. Heat Index Dew Point Humidity Pressure Visibility Wind Dir Wind Speed Gust Speed Precip Events Conditions
12:41 AM 73.4 °F - 69.8 °F 88% 29.93 in 7.0 mi SE 8.1 mph - N/A   Scattered Clouds
1:42 AM 73.4 °F - 71.6 °F 94% 29.92 in 7.0 mi SE 8.1 mph - N/A   Scattered Clouds
2:40 AM 73.4 °F - 71.6 °F 94% 29.95 in 7.0 mi SSE 3.5 mph - N/A   Partly Cloudy
4:07 AM 73.4 °F - 71.6 °F 94% 29.91 in 7.0 mi NE 5.8 mph - N/A   Partly Cloudy
5:02 AM 71.6 °F - 71.6 °F 100% 29.92 in 7.0 mi SE 5.8 mph - N/A   Partly Cloudy
5:40 AM 71.6 °F - 71.6 °F 100% 29.89 in 7.0 mi SE 5.8 mph - N/A   Scattered Clouds
6:43 AM 73.4 °F - 71.6 °F 94% 29.94 in 7.0 mi SE 9.2 mph - N/A   Scattered Clouds
7:44 AM 77.0 °F - 71.6 °F 83% 29.95 in 7.0 mi SE 12.7 mph 24.2 mph N/A   Mostly Cloudy
8:43 AM 77.0 °F - 71.6 °F 83% 29.99 in 7.0 mi SE 10.4 mph 21.9 mph N/A   Mostly Cloudy
9:40 AM 78.8 °F - 71.6 °F 78% 29.97 in 7.0 mi SE 16.1 mph - N/A   Mostly Cloudy
10:40 AM 80.6 °F 85.4 °F 73.4 °F 79% 29.97 in 8.0 mi SSE 16.1 mph - N/A   Mostly Cloudy
11:41 AM 80.6 °F 84.6 °F 71.6 °F 74% 29.93 in 8.0 mi SSE 18.4 mph - N/A   Mostly Cloudy
12:43 PM 80.6 °F 84.6 °F 71.6 °F 74% 29.93 in 8.0 mi SSE 10.4 mph 21.9 mph N/A   Mostly Cloudy
1:42 PM 82.4 °F 86.3 °F 69.8 °F 66% 29.90 in 8.0 mi South 9.2 mph 20.7 mph N/A   Scattered Clouds
2:47 PM 80.6 °F 83.9 °F 69.8 °F 70% 29.92 in 8.0 mi SSE 11.5 mph - N/A   Mostly Cloudy
3:44 PM 80.6 °F 84.6 °F 71.6 °F 74% 29.89 in 8.0 mi SSE 8.1 mph - N/A   Mostly Cloudy
4:42 PM 78.8 °F - 71.6 °F 78% 29.88 in 8.0 mi SE 10.4 mph - N/A   Mostly Cloudy
5:47 PM 75.2 °F - 71.6 °F 89% 29.83 in 8.0 mi SSE 10.4 mph - N/A   Mostly Cloudy
6:44 PM 75.2 °F - 71.6 °F 89% 29.90 in 7.0 mi SE 4.6 mph - N/A   Mostly Cloudy
7:43 PM 73.4 °F - 71.6 °F 94% 29.94 in 7.0 mi SSE 5.8 mph - N/A   Scattered Clouds
8:49 PM 73.4 °F - 71.6 °F 94% 29.99 in 7.0 mi NE 3.5 mph - N/A   Scattered Clouds
9:40 PM 71.6 °F - 71.6 °F 100% 29.93 in 7.0 mi SE 5.8 mph - N/A   Scattered Clouds
10:49 PM 73.4 °F - 71.6 °F 94% 29.90 in 7.0 mi SSE 8.1 mph - N/A   Partly Cloudy
11:52 PM 73.4 °F - 71.6 °F 94% 29.88 in 7.0 mi SSE 5.8 mph - N/A   Partly Cloudy